Вернуться в каталог

QIANFAN-23

АктивенСвязьPO
NORAD 61556·PAYLOAD·🇨🇳 China

Запущен Oct 15, 2024 с Taiyuan Satellite Launch Center

Loading…

Ближайшие Пролёты (ближайшие 24 часа)

TLE

СвежийSource: Space-Track

Эпоха: Sep 14, 2026, 22:04 UTC

1 61556U 24185E   26257.92011247  .00000338  00000-0  16274-3 0  9998
2 61556  88.9842  45.9787 0008933 135.0614 225.1299 14.16551033108847

Отслеживайте QIANFAN-23 в реальном времени с AllMySat

Download on the App Store